Home > Weather > Geldern > Past weeks

Flag for Germany Past Weather in Geldern, North Rhine-Westphalia, Germany — Yesterday and Last 2 Weeks

Now
72 °F

Passing clouds.


Feels Like: 76 °F
Forecast: 58 / 70 °F
Wind: 6 mph from North

Location: Niederrhein

Current Time: May 28, 2016 at 3:48:10 PM

Latest Report: May 28, 2016 at 2:50 PM


Visibility: N/A

Pressure: 29.89 "Hg

Humidity: 61%

Dew Point: 57 °F

Location of GeldernLocation

Past Weather in Geldern — Graph

°F

Geldern Temperature Yesterday

Maximum temperature yesterday: 70 °F (at 4:50 PM)
Minimum temperature yesterday: 57 °F (at 5:20 AM)
Average temperature yesterday: 62 °F

High & Low Weather Summary for the Past Weeks

 TemperatureHumidityPressure
High75 °F (May 13, 2:50 PM)100% (May 19, 6:20 AM)30.12 "Hg (May 19, 6:20 AM)
Low39 °F (May 15, 4:50 AM)25% (May 13, 4:50 PM)29.62 "Hg (May 13, 2:50 PM)
Average58 °F71%29.95 "Hg
* Reported May 13 2:20 PM — May 28 2:20 PM, Geldern, Weather by CustomWeather, © 2016

Note: Actual official high and low records may vary slightly from our data, if they occured in-between our weather recording intervals... More about our weather records

Advertising

Geldern Weather History for the Previous 24 Hours

Scroll right to see more
 ConditionsComfort  
Time TempWeatherWind HumidityBarometerVisibility
2:20 PM
Sat, May 28
72 °FPassing clouds.6 mph61%29.89 "HgN/A
1:50 PM72 °FPassing clouds.5 mph65%29.92 "Hg6 mi
1:20 PM70 °FPassing clouds.5 mph73%29.92 "Hg6 mi
12:50 PM70 °FClear.5 mph73%29.92 "Hg6 mi
12:20 PM70 °FClear.5 mph78%29.92 "Hg6 mi
11:50 AM68 °FClear.5 mph78%29.95 "Hg5 mi
11:20 AM66 °FClear.5 mph78%29.95 "Hg5 mi
10:50 AM64 °FSunny.5 mph78%29.95 "Hg4 mi
10:20 AM64 °FClear.3 mph78%29.95 "Hg4 mi
9:50 AM63 °FClear.3 mph88%29.95 "Hg4 mi
9:20 AM63 °FClear.2 mph83%29.95 "Hg4 mi
8:50 AM61 °FFog.2 mph88%29.95 "Hg3 mi
8:20 AM61 °FFog.1 mph88%29.95 "Hg3 mi
7:50 AM59 °FFog.2 mph94%29.95 "Hg2 mi
7:20 AM59 °FFog.3 mph94%29.95 "Hg2 mi
6:50 AM59 °FFog.3 mph88%29.95 "Hg2 mi
6:20 AM59 °FFog.3 mph88%29.95 "Hg2 mi
5:50 AM59 °FFog.No wind88%29.95 "Hg3 mi
5:20 AM59 °FFog.2 mph88%29.95 "Hg3 mi
4:50 AM59 °FClear.No wind88%29.95 "Hg4 mi
11:50 PM
Fri, May 27
63 °FPassing clouds.6 mph77%29.98 "Hg4 mi
11:20 PM63 °FPartly sunny.5 mph83%29.98 "Hg4 mi
10:50 PM63 °FPartly sunny.3 mph83%29.98 "Hg4 mi
10:20 PM63 °FClear.5 mph77%29.98 "Hg4 mi
9:50 PM63 °FClear.3 mph83%30.01 "Hg4 mi
9:20 PM64 °FClear.5 mph78%29.98 "Hg4 mi
8:50 PM64 °FClear.6 mph78%29.98 "Hg5 mi
8:20 PM66 °FClear.7 mph73%29.98 "Hg5 mi
7:50 PM66 °FPassing clouds.6 mph73%29.98 "HgN/A
7:20 PM66 °FPassing clouds.7 mph73%29.98 "HgN/A
6:50 PM68 °FPassing clouds.9 mph69%29.98 "HgN/A
6:20 PM68 °FPassing clouds.6 mph69%29.98 "HgN/A
5:50 PM68 °FPassing clouds.7 mph69%29.98 "HgN/A
5:20 PM68 °FPassing clouds.7 mph69%29.98 "HgN/A
4:50 PM70 °FPassing clouds.8 mph64%29.98 "HgN/A
4:20 PM68 °FPassing clouds.7 mph69%29.98 "HgN/A
3:50 PM68 °FPassing clouds.8 mph69%29.98 "HgN/A
3:20 PM64 °FPassing clouds.7 mph73%30.01 "HgN/A
Weather by CustomWeather, © 2016

See weather overviewHow to use our weather pages